Location: *
(47.7167°N, 1.7333°W)
Time: 22:50:15
(UTC+00:00)

SPOT 5 - Pass Details

Date: 09 April 2020
Orbit: 624 x 814 km, 98.3° (Epoch: 24 May)

Event Time Altitude Azimuth Distance (km) Brightness Sun altitude
Exits shadow 20:31:39 18° 73° (ENE) 1,542 4.2 -16.7°
Maximum altitude 20:32:19 19° 61° (ENE) 1,515 4.3 -16.8°
Drops below altitude 10° 20:35:19 10° 17° (NNE) 2,009 5.4 -17.2°
Sets 20:38:02 0° 359° (N) 2,930 6.5 -17.6°
